This demonstration page uses our WeatherBlox Daily Observations layout. Learn more.

Left ArrowRight Arrow

39.08367, -84.50855

Hourly Observations for March 17, 2020

Temp ( °F °C ) Dew Point ( °F °C ) Humidity (%) Winds ( mph kmh ) Pressure ( in mb ) Visibility ( mi km ) Precip ( " mm )
12:53 am 00:53 Cloudy 45 7.2 40 4.4 83 83 N N/A 30.18 1022 10 16 N/A
1:53 am 01:53 Cloudy 44 6.7 41 5 89 89 SSW 7 11 30.17 1022 10 16 0.00 0.00
2:53 am 02:53 Cloudy 44 6.7 41 5 89 89 SSW 5 7 30.16 1021 10 16 0.00 0.00
3:35 am 03:35 Cloudy with Light Rain 44 6.7 41 5 89 89 SW 3 6 30.17 1022 10 16 0.00 0.00
3:53 am 03:53 Cloudy 44 6.7 41 5 89 89 SW 6 9 30.16 1021 10 16 0.00 0.00
4:53 am 04:53 Cloudy 44 6.7 41 5 89 89 WSW 5 7 30.15 1021 9 14 N/A
5:27 am 05:27 Cloudy 44 6.7 42 5.6 93 93 S 5 7 30.16 1021 8 13 N/A
5:53 am 05:53 Cloudy 44 6.7 42 5.6 93 93 S 6 9 30.15 1021 7 11 N/A
6:41 am 06:41 Cloudy 45 7.2 41 5 86 86 W 8 13 30.18 1022 10 16 N/A
6:53 am 06:53 Cloudy 45 7.2 41 5 86 86 W 6 9 30.17 1022 10 16 N/A
7:53 am 07:53 Cloudy with Mist and Fog 45 7.2 41 5 86 86 VRB 3 6 30.20 1023 6 10 N/A
8:53 am 08:53 Cloudy 45 7.2 40 4.4 83 83 NW 7 11 30.23 1024 10 16 N/A
9:53 am 09:53 Cloudy 44 6.7 39 3.9 83 83 NW 10 17 30.26 1025 10 16 N/A
10:19 am 10:19 Cloudy 45 7.2 39 3.9 80 80 WNW 7 11 30.28 1026 10 16 N/A
10:53 am 10:53 Cloudy 45 7.2 39 3.9 80 80 NNW 5 7 30.27 1025 10 16 N/A
11:53 am 11:53 Cloudy 45 7.2 36 2.2 71 71 NNW 8 13 30.30 1026 10 16 N/A
12:53 pm 12:53 Cloudy 45 7.2 34 1.1 66 66 N 10 17 30.30 1026 10 16 N/A
1:10 pm 13:10 Cloudy 47 8.3 33 0.6 59 59 NW 8 13 30.31 1026 10 16 N/A
1:53 pm 13:53 Cloudy 48 8.9 34 1.1 58 58 NNE 7 11 30.31 1026 10 16 N/A
2:53 pm 14:53 Cloudy 49 9.4 34 1.1 56 56 NW 10 17 30.30 1026 10 16 N/A
3:53 pm 15:53 Cloudy 51 10.6 35 1.7 54 54 NW 8 13 30.29 1026 10 16 N/A
4:53 pm 16:53 Mostly Sunny 52 11.1 35 1.7 53 53 WNW 7 11 30.29 1026 10 16 N/A
5:53 pm 17:53 Mostly Sunny 52 11.1 35 1.7 53 53 N 6 9 30.30 1026 10 16 N/A
6:53 pm 18:53 Sunny 51 10.6 34 1.1 52 52 ENE 3 6 30.30 1026 10 16 N/A
7:53 pm 19:53 Clear 48 8.9 34 1.1 58 58 ENE 3 6 30.32 1027 10 16 N/A
8:53 pm 20:53 Clear 43 6.1 35 1.7 74 74 N 3 6 30.33 1027 10 16 N/A
9:53 pm 21:53 Clear 39 3.9 35 1.7 86 86 N N/A 30.35 1028 10 16 N/A
10:53 pm 22:53 Clear 37 2.8 34 1.1 89 89 N N/A 30.35 1028 10 16 N/A
11:53 pm 23:53 Clear 36 2.2 33 0.6 89 89 N N/A 30.35 1028 10 16 N/A

Powered by AerisWeather